• In Germany
  • List of Countries
  • For 7 days
  • Water Temperature
  • Satellite Maps
  • Weather Map
  • Weather Widgets
  • user-avatar
    Login

    Hourly Weather Perth

    Today, 29 May, Monday

    Time Temperature Precipitation Wind Pressure Humidity
    00:00 +10°C° 0 mm 2 mps 767 mmHg 76%
    01:00 +10°C° 0 mm 2 mps 767 mmHg 77%
    02:00 +10°C° 0 mm 3 mps 767 mmHg 78%
    03:00 +10°C° 0 mm 3 mps 767 mmHg 79%
    04:00 +10°C° 0 mm 3 mps 767 mmHg 80%
    05:00 +10°C° 0 mm 3 mps 767 mmHg 80%
    06:00 +10°C° 0 mm 3 mps 767 mmHg 79%
    07:00 +10°C° 0 mm 3 mps 767 mmHg 78%
    08:00 +10°C° 0 mm 3 mps 767 mmHg 77%
    09:00 +13°C° 0 mm 3 mps 767 mmHg 68%
    10:00 +16°C° 0 mm 3 mps 767 mmHg 59%
    11:00 +18°C° 0 mm 3 mps 767 mmHg 50%
    12:00 +19°C° 0 mm 2 mps 766 mmHg 46%
    13:00 +20°C° 0 mm 2 mps 766 mmHg 42%
    14:00 +23°C° 0 mm 2 mps 765 mmHg 38%
    15:00 +20°C° 0 mm 2 mps 765 mmHg 43%
    16:00 +19°C° 0 mm 2 mps 765 mmHg 48%
    17:00 +17°C° 0 mm 2 mps 765 mmHg 53%
    18:00 +16°C° 0 mm 2 mps 765 mmHg 56%
    19:00 +14°C° 0 mm 3 mps 765 mmHg 58%
    20:00 +13°C° 0 mm 3 mps 766 mmHg 61%
    21:00 +13°C° 0 mm 3 mps 766 mmHg 61%
    22:00 +13°C° 0 mm 4 mps 765 mmHg 60%
    23:00 +13°C° 0 mm 4 mps 765 mmHg 60%

    Tomorrow, 30 May, Tuesday

    Time Temperature Precipitation Wind Pressure Humidity
    00:00 +13°C° 0 mm 4 mps 765 mmHg 60%
    01:00 +12°C° 0 mm 4 mps 765 mmHg 60%
    02:00 +12°C° 0 mm 4 mps 765 mmHg 60%
    03:00 +12°C° 0 mm 4 mps 765 mmHg 60%
    04:00 +12°C° 0 mm 5 mps 765 mmHg 59%
    05:00 +12°C° 0 mm 5 mps 765 mmHg 59%
    06:00 +13°C° 0 mm 5 mps 765 mmHg 58%
    07:00 +13°C° 0 mm 5 mps 765 mmHg 57%
    08:00 +14°C° 0 mm 5 mps 765 mmHg 56%
    09:00 +17°C° 0 mm 4 mps 765 mmHg 51%
    10:00 +19°C° 0 mm 4 mps 765 mmHg 47%
    11:00 +21°C° 0 mm 4 mps 765 mmHg 42%
    12:00 +22°C° 0 mm 4 mps 764 mmHg 39%
    13:00 +25°C° 0 mm 3 mps 764 mmHg 37%
    14:00 +26°C° 0 mm 3 mps 763 mmHg 35%
    15:00 +24°C° 0 mm 2 mps 763 mmHg 43%
    16:00 +21°C° 0 mm 2 mps 763 mmHg 50%
    17:00 +20°C° 0 mm 1 mps 763 mmHg 58%
    18:00 +18°C° 0 mm 1 mps 763 mmHg 68%
    19:00 +15°C° 0 mm 1 mps 764 mmHg 79%
    20:00 +12°C° 0 mm 0 mps 764 mmHg 89%
    21:00 +14°C° 0 mm 1 mps 764 mmHg 82%
    22:00 +14°C° 0 mm 1 mps 764 mmHg 74%
    23:00 +15°C° 0 mm 2 mps 764 mmHg 67%

    Day after tomorrow, 31 May, Wednesday

    Time Temperature Precipitation Wind Pressure Humidity
    00:00 +15°C° 0 mm 2 mps 764 mmHg 64%
    01:00 +15°C° 0 mm 2 mps 763 mmHg 61%
    02:00 +14°C° 0 mm 3 mps 763 mmHg 58%
    03:00 +14°C° 0 mm 3 mps 763 mmHg 57%
    04:00 +14°C° 0 mm 3 mps 763 mmHg 55%
    05:00 +14°C° 0 mm 3 mps 763 mmHg 53%
    06:00 +16°C° 0 mm 3 mps 763 mmHg 53%
    07:00 +16°C° 0 mm 3 mps 763 mmHg 52%
    08:00 +16°C° 0 mm 3 mps 763 mmHg 52%
    09:00 +19°C° 0 mm 3 mps 763 mmHg 47%
    10:00 +21°C° 0 mm 3 mps 763 mmHg 42%
    11:00 +24°C° 0 mm 3 mps 763 mmHg 38%
    12:00 +25°C° 0 mm 3 mps 763 mmHg 35%
    13:00 +27°C° 0 mm 3 mps 762 mmHg 32%
    14:00 +28°C° 0 mm 3 mps 762 mmHg 29%
    15:00 +25°C° 0 mm 2 mps 762 mmHg 37%
    16:00 +23°C° 0 mm 2 mps 762 mmHg 45%
    17:00 +21°C° 0 mm 1 mps 762 mmHg 53%
    18:00 +19°C° 0 mm 1 mps 762 mmHg 62%
    19:00 +15°C° 0 mm 0 mps 763 mmHg 71%
    20:00 +13°C° 0 mm 0 mps 763 mmHg 80%
    21:00 +13°C° 0 mm 0 mps 763 mmHg 78%
    22:00 +14°C° 0 mm 1 mps 763 mmHg 76%
    23:00 +14°C° 0 mm 1 mps 763 mmHg 74%

    1 June, Thursday

    Time Temperature Precipitation Wind Pressure Humidity
    00:00 +14°C° 0 mm 1 mps 763 mmHg 73%
    01:00 +14°C° 0 mm 1 mps 763 mmHg 73%
    02:00 +15°C° 0 mm 1 mps 763 mmHg 72%
    03:00 +14°C° 0 mm 1 mps 763 mmHg 74%
    04:00 +14°C° 0 mm 2 mps 763 mmHg 76%
    05:00 +14°C° 0 mm 2 mps 763 mmHg 78%
    06:00 +15°C° 0 mm 2 mps 763 mmHg 80%
    07:00 +15°C° 0 mm 2 mps 764 mmHg 82%
    08:00 +15°C° 0 mm 2 mps 764 mmHg 84%
    09:00 +17°C° 0 mm 3 mps 764 mmHg 79%
    10:00 +20°C° 0 mm 4 mps 765 mmHg 75%
    11:00 +22°C° 0 mm 4 mps 765 mmHg 70%
    12:00 +22°C° 0 mm 4 mps 765 mmHg 68%
    13:00 +22°C° 0 mm 4 mps 764 mmHg 66%
    14:00 +22°C° 0 mm 4 mps 764 mmHg 64%
    15:00 +21°C° 0 mm 4 mps 764 mmHg 68%
    16:00 +20°C° 0 mm 3 mps 765 mmHg 72%
    17:00 +19°C° 0 mm 2 mps 765 mmHg 76%
    18:00 +18°C° 0 mm 2 mps 766 mmHg 82%
    19:00 +16°C° 0 mm 2 mps 766 mmHg 89%
    20:00 +14°C° 0 mm 1 mps 767 mmHg 95%
    21:00 +14°C° 0 mm 1 mps 767 mmHg 95%
    22:00 +14°C° 0 mm 2 mps 767 mmHg 96%
    23:00 +14°C° 0 mm 2 mps 767 mmHg 96%

    2 June, Friday

    Time Temperature Precipitation Wind Pressure Humidity
    00:00 +14°C° 0 mm 2 mps 766 mmHg 96%
    01:00 +14°C° 0 mm 2 mps 766 mmHg 97%
    02:00 +14°C° 0 mm 2 mps 766 mmHg 97%
    03:00 +14°C° 0 mm 2 mps 766 mmHg 98%
    04:00 +14°C° 0 mm 2 mps 766 mmHg 98%
    05:00 +14°C° 0 mm 2 mps 766 mmHg 98%
    06:00 +14°C° 0 mm 2 mps 767 mmHg 97%
    07:00 +15°C° 0 mm 2 mps 767 mmHg 96%
    08:00 +15°C° 0 mm 2 mps 767 mmHg 94%
    09:00 +18°C° 0 mm 2 mps 767 mmHg 83%
    10:00 +20°C° 0 mm 2 mps 767 mmHg 72%
    11:00 +24°C° 0 mm 2 mps 767 mmHg 61%
    12:00 +24°C° 0 mm 2 mps 767 mmHg 56%
    13:00 +25°C° 0 mm 3 mps 766 mmHg 52%
    14:00 +26°C° 0 mm 3 mps 765 mmHg 48%
    15:00 +24°C° 0 mm 2 mps 765 mmHg 56%
    16:00 +21°C° 0 mm 2 mps 765 mmHg 64%
    17:00 +20°C° 0 mm 2 mps 766 mmHg 72%
    18:00 +18°C° 0 mm 2 mps 766 mmHg 79%
    19:00 +17°C° 0 mm 2 mps 766 mmHg 86%
    20:00 +15°C° 0 mm 2 mps 766 mmHg 93%
    21:00 +15°C° 0 mm 2 mps 766 mmHg 94%
    22:00 +15°C° 0 mm 2 mps 766 mmHg 95%
    23:00 +15°C° 0 mm 2 mps 766 mmHg 96%

    3 June, Saturday

    Time Temperature Precipitation Wind Pressure Humidity
    00:00 +15°C° 0 mm 2 mps 766 mmHg 96%
    01:00 +16°C° 0 mm 2 mps 766 mmHg 97%
    02:00 +16°C° 0 mm 3 mps 766 mmHg 97%
    03:00 +16°C° 0 mm 3 mps 766 mmHg 97%
    04:00 +16°C° 0 mm 3 mps 766 mmHg 97%
    05:00 +16°C° 0 mm 3 mps 766 mmHg 97%
    06:00 +16°C° 1 mm 3 mps 767 mmHg 97%
    07:00 +17°C° 1 mm 3 mps 767 mmHg 97%
    08:00 +17°C° 1 mm 3 mps 768 mmHg 97%
    09:00 +18°C° 0.9 mm 3 mps 768 mmHg 93%
    10:00 +18°C° 0.9 mm 3 mps 768 mmHg 89%
    11:00 +19°C° 0.9 mm 4 mps 769 mmHg 85%
    12:00 +20°C° 0.1 mm 4 mps 768 mmHg 78%
    13:00 +20°C° 0.1 mm 4 mps 768 mmHg 70%
    14:00 +21°C° 0.1 mm 5 mps 768 mmHg 62%
    15:00 +20°C° 0 mm 5 mps 768 mmHg 64%
    16:00 +19°C° 0 mm 4 mps 769 mmHg 67%
    17:00 +18°C° 0 mm 4 mps 769 mmHg 69%
    18:00 +17°C° 0 mm 4 mps 770 mmHg 70%
    19:00 +15°C° 0 mm 4 mps 771 mmHg 71%
    20:00 +14°C° 0 mm 4 mps 771 mmHg 72%
    21:00 +14°C° 0 mm 4 mps 772 mmHg 72%
    22:00 +13°C° 0 mm 5 mps 772 mmHg 72%
    23:00 +12°C° 0 mm 5 mps 772 mmHg 72%
    Show more